Location: Bittkow
(50.3000°N, 19.0000°E)
Time: 12:05:51
(UTC+00:00)

IDEFIX/ARIANE 42P - Pass Details

Date: 19 September 2020
Orbit: 786 x 802 km, 98.4° (Epoch: 21 October)

Event Time Altitude Azimuth Distance (km) Brightness Sun altitude
Rises 01:43:44 0° 16° (NNE) 3,325 6.6 -24.9°
Reaches altitude 10° 01:46:07 10° 20° (NNE) 2,391 5.8 -24.6°
Maximum altitude 01:51:22 63° 102° (ESE) 897 2.9 -23.9°
Enters shadow 01:53:40 33° 171° (S) 1,326 3.5 -23.6°
